User: anonymous   Login
Location: Newark
(41.8083°N, 72.2500°W)
Time: 06:18:33
(UTC+00:00)
Language:

Transit 2A - Orbit

View from above orbital plane
View from above orbital plane
View from above satellite
View from above satellite

Ground track
Ground track

The orbit data is extracted from the following two-line orbital elements,

1 00045U 60007A   21336.47348755  .00000034  00000-0  35127-4 0  9999
2 00045  66.6957  56.1927 0262271 287.1492  70.1045 14.33753557142246
Epoch (UTC): 02 December 2021 11:21:49
Eccentricity: 0.0262271
inclination: 66.6957°
perigee height: 591 km
apogee height: 967 km
right ascension of ascending node: 56.1927°
argument of perigee: 287.1492°
revolutions per day: 14.33753557
mean anomaly at epoch: 70.1045°
orbit number at epoch: 14224

The dashed part of the orbit path shows where the satellite is in the earth's shadow,  

DLR